Flag for Norway Weather past 2 weeks in Kolbotn, Norway

Now
61 °F

Cool.


Feels Like: 61 °F
Forecast: 49 / 61 °F
Wind: 15 mph from East

Location: Oslo / Fornebu

Current Time: Aug 30, 2014 at 10:26:31 PM

Latest Report: Aug 30, 2014 at 9:50 PM


Visibility: N/A

Pressure: 29.86 "Hg

Humidity: 77%

Dew point: 54 °F

Location of KolbotnLocation

Historic Weather in Kolbotn — Graph

°F

Kolbotn temperature yesterday

Maximum temperature yesterday: 61 °F (at 4:20 PM)
Minimum temperature yesterday: 57 °F (at 12:20 AM)
Average temperature yesterday: 58 °F

Past Weeks' High & Low Weather Summary

 TemperatureHumidityPressure
High61 °F (Aug 28, 12:50 PM)100% (Aug 16, 4:50 PM)30.07 "Hg (Aug 16, 4:50 PM)
Low52 °F (Aug 16, 3:50 AM)63% (Aug 16, 12:50 AM)29.33 "Hg (Aug 17, 3:50 AM)
Average54 °F80%29.73 "Hg
* Reported Aug 15 8:20 PM — Aug 30 8:50 PM, Kolbotn, Weather by CustomWeather, © 2014

Note: Actual official high and low records may vary slightly from our data, if they occured in-between our weather recording intervals... More about our weather records

Advertising

Kolbotn weather history for previous 24 hours

 ConditionsComfort  
Time TempWeatherWind HumidityBarometerVisibility
8:50 PM
Aug 30
61 °FBroken clouds.9 mph77%29.83 "HgN/A
7:50 PM59 °FPartly sunny.9 mph82%29.83 "HgN/A
7:20 PM61 °FPartly sunny.13 mph77%29.83 "HgN/A
6:50 PM61 °FPartly sunny.9 mph77%29.83 "HgN/A
6:20 PM61 °FPartly sunny.10 mph77%29.83 "HgN/A
5:50 PM61 °FPartly sunny.16 mph77%29.80 "HgN/A
5:20 PM61 °FPartly sunny.20 mph77%29.80 "HgN/A
4:50 PM61 °FPartly sunny.24 mph77%29.80 "HgN/A
4:20 PM61 °FPartly sunny.23 mph77%29.80 "HgN/A
3:50 PM61 °FPartly sunny.24 mph77%29.80 "HgN/A
3:20 PM61 °FBroken clouds.23 mph77%29.80 "HgN/A
2:50 PM61 °FPassing clouds.24 mph83%29.80 "HgN/A
2:20 PM61 °FPartly sunny.25 mph77%29.77 "HgN/A
1:50 PM59 °FPartly sunny.23 mph82%29.80 "HgN/A
1:20 PM61 °FBroken clouds.23 mph72%29.77 "HgN/A
12:50 PM59 °FBroken clouds.24 mph82%29.77 "HgN/A
12:20 PM59 °FPassing clouds.23 mph82%29.77 "HgN/A
11:50 AM59 °FBroken clouds.24 mph82%29.77 "HgN/A
11:20 AM59 °FPartly sunny.25 mph82%29.77 "HgN/A
10:50 AM59 °FPartly sunny.24 mph82%29.77 "HgN/A
10:20 AM59 °FPartly sunny.28 mph82%29.77 "HgN/A
9:50 AM59 °FPartly sunny.30 mph82%29.77 "HgN/A
9:20 AM57 °FPartly sunny.30 mph88%29.77 "HgN/A
8:50 AM57 °FPartly sunny.30 mph88%29.77 "HgN/A
8:20 AM57 °FSprinkles. Partly sunny.30 mph88%29.77 "HgN/A
7:50 AM57 °FSprinkles. Partly sunny.31 mph88%29.77 "HgN/A
7:20 AM57 °FLight rain. Broken clouds.32 mph88%29.77 "HgN/A
6:50 AM57 °FPassing clouds.30 mph88%29.77 "HgN/A
6:20 AM55 °FPassing clouds.30 mph94%29.77 "HgN/A
5:50 AM55 °FPassing clouds.30 mph94%29.77 "HgN/A
5:20 AM55 °FPassing clouds.30 mph94%29.77 "HgN/A
4:50 AM57 °FSprinkles. Overcast.32 mph88%29.77 "HgN/A
4:20 AM57 °FSprinkles. Overcast.31 mph88%29.77 "HgN/A
3:50 AM57 °FLight rain. Overcast.31 mph88%29.77 "HgN/A
3:20 AM57 °FPassing clouds.33 mph88%29.77 "HgN/A
2:50 AM59 °FPartly cloudy.30 mph88%29.77 "HgN/A
2:20 AM59 °FPartly cloudy.29 mph88%29.77 "HgN/A
1:50 AM59 °FPassing clouds.26 mph88%29.77 "HgN/A
1:20 AM59 °FPassing clouds.29 mph88%29.77 "HgN/A
12:50 AM59 °FPartly cloudy.N/A88%29.77 "HgN/A
12:20 AM59 °FCool.N/A82%29.77 "HgN/A
11:50 PM
Aug 29
59 °FCool.N/A82%29.77 "HgN/A
11:20 PM59 °FCool.N/A82%29.80 "HgN/A
10:50 PM59 °FCool.N/A88%29.77 "HgN/A
Weather by CustomWeather, © 2014

See weather overviewHow to use our weather pages